Temp
77 77 79 79 81 81 80 79 81 80 81 83 81 83 83 83 82 81 82 81 81 82 82 81 81 81 82 83 82 82 82 82 79 77 77 77 74 73 74 72 71 73 75 74 75 74 73 70 65 66 67 69 70 71 72 73 74 75 74 74 75 76 76
79 80 80 80 79 79 78 79 80 80 80 81 83 81 82 83 82 81 81 81 81 82 83 82 81 82 81 80 80 80 79 79 79 79 77 76 76 75 72 71 72 72 74 74 74 75 73 71 72 66 64 66 68 69 69 71 72 72 74 75 76 76 75
78 79 79 79 79 78 78 78 79 79 80 80 81 82 81 83 82 82 81 81 81 82 82 81 82 81 80 80 80 79 79 78 79 78 77 77 78 77 76 75 72 72 73 73 72 72 73 74 72 70 66 63 62 65 66 67 69 71 73 74 74 75 75
78 78 78 78 79 78 77 77 78 79 79 79 80 80 80 81 81 82 81 82 82 81 81 81 81 81 81 81 81 80 79 78 78 78 77 77 77 77 76 76 74 73 72 71 70 71 72 72 73 73 70 69 68 63 65 68 70 72 74 74 73 75 76
78 78 78 76 77 77 77 77 79 79 79 79 79 79 79 80 80 81 81 82 82 81 80 81 81 82 82 82 81 79 79 79 79 78 77 76 76 77 75 76 75 75 75 74 73 74 74 74 74 74 71 70 70 71 70 68 70 72 74 74 76 76 76
78 79 79 78 78 78 79 79 78 79 79 79 79 79 79 79 80 80 80 80 81 81 81 81 81 82 81 81 81 79 79 79 79 77 77 76 76 76 76 76 76 75 74 75 75 75 76 77 77 74 75 72 67 69 71 69 67 72 75 74 77 77 76
78 79 79 79 79 80 80 79 80 80 80 80 80 79 81 81 81 81 80 80 81 81 80 80 80 80 80 80 80 79 79 79 79 77 77 77 77 77 78 76 75 74 74 75 75 75 75 76 75 74 72 71 71 72 72 69 71 67 71 74 76 77 77
79 79 80 80 79 80 80 80 80 81 80 81 81 81 82 81 81 80 80 80 80 79 79 78 78 79 79 78 79 78 80 81 79 78 78 77 77 77 76 76 75 73 73 74 75 75 77 76 76 76 75 69 68 71 70 72 73 72 72 74 77 75 75
80 80 80 81 80 81 80 81 81 81 82 81 81 81 81 81 80 79 80 79 80 79 78 78 78 79 78 77 77 77 77 80 78 77 77 77 77 76 75 76 75 74 72 72 73 75 77 78 77 77 77 73 69 66 69 69 71 72 77 74 77 77 75
79 79 79 80 80 80 80 81 81 81 81 81 81 81 79 81 80 79 79 79 77 77 77 77 77 77 77 77 77 77 76 79 78 78 78 77 77 76 75 74 74 74 73 73 74 76 77 77 78 77 77 74 73 69 66 65 67 70 74 77 72 75 78
80 81 81 80 81 80 81 81 82 81 80 81 81 80 80 81 79 77 78 77 76 76 77 76 76 76 76 76 76 77 78 78 77 77 78 78 77 75 75 74 74 74 74 73 73 74 75 76 76 75 75 75 75 71 70 67 68 72 73 76 76 76 76
81 81 81 81 81 80 80 81 81 80 80 80 80 78 78 79 78 76 76 76 75 76 77 75 75 74 75 75 75 76 77 77 77 76 77 77 77 76 75 73 74 74 74 73 72 71 72 72 72 73 73 74 74 73 72 72 69 72 75 72 74 80 77
83 82 81 81 80 81 81 81 80 79 79 80 79 79 79 79 78 76 75 75 75 76 77 76 75 74 74 74 74 74 75 75 75 76 76 78 77 76 75 74 73 72 72 72 70 70 69 69 70 71 72 73 74 74 74 73 71 72 73 74 74 77 78
80 82 81 81 80 81 81 81 81 81 81 79 80 77 79 80 79 78 77 76 77 77 76 75 75 75 74 73 73 74 75 76 75 75 76 76 76 75 75 73 73 73 72 70 69 69 69 69 69 69 72 74 74 74 73 72 71 72 71 75 75 74 76
80 81 80 80 79 81 80 79 80 80 79 80 79 78 80 78 78 78 78 78 77 78 77 77 76 76 75 74 73 74 73 73 74 75 75 75 75 73 73 73 74 72 72 71 69 69 69 68 68 69 71 72 73 73 74 72 72 72 68 69 72 74 72
80 79 79 79 79 79 80 80 81 80 79 79 79 78 77 78 78 77 76 76 78 78 77 76 75 75 75 75 75 74 74 74 73 73 74 75 75 73 71 72 71 70 70 70 69 70 70 69 70 71 71 72 71 72 72 72 71 70 69 67 71 70 69
77 78 78 79 79 79 80 80 80 79 80 79 77 77 77 78 78 77 75 75 76 77 76 75 75 75 75 75 75 74 74 73 73 73 74 75 74 71 70 69 68 68 68 69 69 70 70 69 69 70 70 70 70 70 72 72 72 71 70 67 68 71 71
77 77 78 78 79 79 79 79 79 81 80 79 78 76 75 77 77 77 75 74 74 75 75 75 75 74 74 74 74 74 75 74 73 73 74 74 70 71 69 67 66 68 69 69 67 67 68 68 70 70 70 71 71 71 71 71 71 71 70 67 68 70 72
77 78 78 79 79 79 79 78 79 80 80 79 78 76 75 75 76 76 76 76 76 76 75 75 75 74 74 74 73 74 73 72 71 71 72 72 71 68 67 68 67 68 69 68 67 67 68 68 70 69 68 69 71 69 67 68 69 70 70 69 69 67 69
78 78 78 78 79 79 78 79 80 80 79 78 77 76 76 76 75 76 76 76 76 76 76 76 75 74 74 74 73 72 68 69 68 67 66 66 65 65 66 67 67 68 68 69 68 68 67 68 68 67 68 68 68 67 66 66 68 68 68 68 68 69 68
78 78 78 78 79 79 80 80 79 78 79 78 76 77 77 76 75 75 76 75 75 75 75 74 74 73 72 71 70 69 66 67 67 67 64 62 62 63 65 66 66 66 66 67 68 68 67 65 66 66 67 67 68 67 67 67 67 67 66 67 68 68 68
79 79 78 78 78 79 79 80 79 78 78 77 76 77 77 76 75 74 75 75 75 74 72 71 71 70 70 69 69 68 67 66 65 63 61 60 61 62 63 65 65 64 62 61 59 62 63 64 66 64 65 66 66 66 67 68 66 66 68 68 67 68 67
79 78 78 79 79 79 79 78 77 77 78 78 77 76 76 76 75 75 74 74 74 72 72 72 66 58 61 68 67 67 65 65 66 65 62 61 61 61 61 62 62 61 59 59 57 54 52 54 54 60 66 66 66 65 65 64 65 67 68 67 67 66 65
78 77 78 78 78 78 78 76 76 77 77 76 75 75 74 74 74 74 74 74 72 71 71 69 51 51 51 55 65 66 67 67 69 67 65 65 64 62 62 63 61 59 58 57 54 47 48 50 50 49 51 53 56 62 65 64 66 68 68 68 68 67 66
77 77 78 77 77 77 77 76 76 76 75 74 74 74 73 74 75 75 75 75 73 71 71 52 45 46 48 50 57 67 69 68 69 68 67 67 66 65 65 64 63 63 64 64 61 56 52 45 44 45 46 48 46 43 45 60 66 67 67 67 68 67 67
77 76 77 77 77 76 76 76 76 74 74 74 74 73 73 73 74 75 74 73 72 71 71 45 45 45 47 48 50 62 71 71 69 68 68 69 69 67 66 64 64 65 65 60 62 62 60 55 46 44 45 44 45 47 45 42 44 59 67 68 67 67 67
76 76 76 76 76 76 74 75 74 74 74 72 73 72 72 72 73 73 73 72 69 69 68 48 44 45 46 46 48 56 74 71 69 69 70 70 69 68 68 68 67 65 65 64 65 63 63 62 61 60 61 64 65 55 46 46 48 47 57 65 67 67 66
75 75 76 76 75 74 73 73 73 73 73 72 72 71 71 71 72 72 72 70 68 67 63 44 44 44 44 45 46 53 73 72 72 71 71 71 70 69 69 69 68 66 65 64 65 63 64 64 64 64 64 65 67 66 66 66 67 68 67 67 68 66 64
75 75 75 74 73 72 72 72 72 72 72 72 72 71 71 72 72 72 71 69 68 67 58 42 43 43 44 45 45 69 72 71 71 71 71 71 71 71 72 71 70 68 67 67 56 47 55 67 66 66 65 65 64 62 59 49 43 50 61 66 68 66 65
75 74 74 73 72 72 71 70 71 71 70 70 70 70 71 72 73 72 70 69 68 67 60 46 42 43 44 44 52 74 72 73 72 70 71 71 72 72 71 71 70 69 67 66 50 46 48 55 67 66 65 64 64 63 60 57 46 42 42 42 41 40 39
75 75 74 74 74 72 72 72 71 70 69 68 68 70 72 72 72 72 71 69 69 67 65 51 41 43 44 45 56 73 73 74 71 71 70 71 71 71 68 61 65 69 66 63 42 44 46 56 67 66 65 64 62 61 60 60 60 54 42 41 40 40 40
76 75 76 75 75 73 72 71 70 70 69 69 68 71 73 72 71 71 71 70 62 67 68 56 41 43 44 45 57 74 74 75 71 70 70 69 70 70 67 63 50 59 63 52 38 45 42 53 67 65 65 64 62 61 61 62 60 59 60 60 59 58 54
77 77 76 75 73 72 72 70 68 68 68 68 68 71 74 73 70 70 71 69 66 68 67 63 52 41 45 45 46 70 75 73 71 70 70 69 68 68 67 65 56 41 41 39 41 42 46 43 63 66 66 64 62 60 64 64 64 64 63 63 62 63 62
75 75 76 74 72 70 69 67 66 67 68 69 70 71 72 71 69 68 68 69 68 68 68 66 57 41 44 45 45 48 76 73 73 71 71 69 70 68 67 67 64 43 41 40 41 41 45 44 48 64 64 65 64 62 60 64 60 57 63 61 62 62 62
75 75 76 74 70 66 66 66 66 68 69 69 70 70 68 68 69 69 70 70 69 68 64 59 62 44 42 43 45 42 66 75 73 72 69 70 70 69 68 66 64 48 39 40 40 41 43 45 42 65 57 45 45 49 63 63 62 63 62 62 61 60 60
71 72 72 71 69 66 65 65 65 66 66 67 69 68 65 66 67 68 69 68 68 66 65 61 51 54 43 42 43 45 42 56 54 70 70 68 68 68 68 65 58 42 40 39 40 40 42 42 51 53 39 43 45 43 54 63 61 61 61 61 60 59 60
70 69 69 69 69 67 65 65 63 64 65 66 67 66 66 67 68 68 67 66 65 64 63 63 51 49 51 40 43 42 45 45 54 68 70 70 68 65 63 60 53 40 40 39 39 40 40 46 51 39 40 39 40 47 62 61 61 61 59 60 60 60 60
MSLP
1011.99 1012.19 1012.23 1012.35 1012.35 1012.51 1013.03 1013.43 1013.51 1013.75 1013.83 1013.91 1014.23 1014.31 1014.35 1014.55 1014.79 1015.07 1015.11 1015.27 1015.31 1015.31 1015.47 1015.67 1015.79 1015.75 1015.75 1015.75 1015.83 1015.87 1015.99 1016.07 1016.51 1017.03 1017.11 1017.15 1017.87 1018.11 1018.03 1018.23 1018.31 1018.27 1017.95 1017.71 1017.79 1018.55 1018.87 1019.47 1020.55 1020.59 1020.55 1020.39 1020.19 1020.03 1019.91 1019.91 1019.91 1019.99 1020.27 1020.19 1020.11 1020.11 1020.15
1011.43 1011.63 1011.83 1012.03 1012.43 1012.63 1013.15 1013.27 1013.47 1013.63 1013.87 1013.79 1013.87 1014.15 1014.23 1014.39 1014.63 1014.83 1014.87 1014.99 1015.03 1015.07 1015.11 1015.23 1015.27 1015.31 1015.55 1015.75 1015.87 1016.03 1016.15 1016.23 1016.35 1016.47 1016.83 1017.19 1017.39 1017.63 1018.19 1018.31 1018.19 1018.39 1018.19 1017.79 1017.67 1017.91 1018.71 1019.11 1018.83 1020.19 1020.67 1020.67 1020.51 1020.39 1020.27 1020.19 1020.11 1020.27 1020.11 1020.11 1020.07 1020.07 1020.23
1011.35 1011.51 1011.67 1012.07 1012.35 1012.63 1013.07 1013.23 1013.39 1013.63 1013.75 1013.79 1013.79 1013.91 1014.15 1014.23 1014.35 1014.39 1014.51 1014.63 1014.71 1014.75 1014.75 1014.83 1014.83 1015.03 1015.23 1015.43 1015.59 1015.79 1015.91 1016.19 1016.15 1016.39 1016.71 1016.83 1016.95 1017.19 1017.47 1017.71 1018.19 1018.35 1018.31 1018.15 1018.07 1018.11 1018.31 1018.35 1018.71 1019.23 1020.03 1020.79 1020.95 1020.75 1020.67 1020.59 1020.67 1020.47 1020.23 1020.15 1020.27 1020.23 1020.19
1011.27 1011.47 1011.71 1012.03 1012.23 1012.63 1012.95 1013.19 1013.31 1013.35 1013.43 1013.63 1013.67 1013.79 1013.95 1013.95 1013.99 1014.07 1014.19 1014.23 1014.31 1014.39 1014.51 1014.55 1014.67 1014.75 1014.95 1015.15 1015.27 1015.55 1015.83 1016.07 1016.19 1016.31 1016.55 1016.67 1016.75 1017.03 1017.31 1017.43 1017.63 1017.91 1018.15 1018.19 1018.11 1017.99 1018.15 1018.35 1018.51 1018.59 1019.27 1019.79 1019.91 1020.71 1020.71 1020.43 1020.39 1020.23 1020.03 1020.11 1020.19 1020.15 1020.11
1010.95 1011.23 1011.51 1011.91 1012.15 1012.51 1012.67 1012.95 1012.95 1013.11 1013.35 1013.35 1013.55 1013.71 1013.83 1013.75 1013.79 1013.91 1013.99 1014.11 1014.19 1014.27 1014.47 1014.59 1014.71 1014.75 1014.79 1014.83 1015.03 1015.31 1015.59 1015.75 1015.91 1016.19 1016.43 1016.71 1016.79 1016.79 1017.07 1017.19 1017.35 1017.35 1017.55 1017.63 1017.43 1017.35 1017.59 1017.79 1017.95 1018.07 1018.87 1019.27 1019.43 1019.59 1019.87 1020.39 1020.27 1020.07 1019.95 1020.03 1019.87 1019.75 1019.95
1010.63 1010.83 1011.15 1011.51 1011.71 1012.11 1012.27 1012.51 1012.75 1012.95 1012.99 1013.27 1013.31 1013.47 1013.51 1013.51 1013.59 1013.87 1014.03 1014.15 1014.15 1014.23 1014.35 1014.47 1014.55 1014.59 1014.63 1014.71 1014.79 1015.03 1015.15 1015.39 1015.51 1015.87 1016.27 1016.39 1016.39 1016.59 1016.75 1016.87 1017.11 1017.31 1017.47 1017.31 1017.19 1017.15 1016.99 1017.07 1017.31 1017.95 1017.99 1018.91 1019.63 1019.39 1019.47 1020.11 1020.51 1019.91 1019.59 1019.83 1019.47 1019.43 1019.71
1010.47 1010.55 1010.79 1011.11 1011.47 1011.55 1011.75 1012.11 1012.31 1012.43 1012.63 1012.87 1013.03 1013.19 1012.99 1013.15 1013.35 1013.63 1013.79 1013.83 1013.79 1013.95 1014.11 1014.23 1014.35 1014.55 1014.67 1014.79 1014.79 1014.87 1014.95 1014.95 1015.11 1015.55 1015.79 1015.95 1016.03 1016.11 1016.15 1016.59 1016.87 1017.11 1017.19 1017.11 1017.19 1017.11 1017.11 1017.23 1017.39 1017.63 1018.11 1018.83 1018.87 1018.83 1019.11 1019.79 1019.79 1020.19 1019.83 1019.55 1019.35 1019.27 1019.47
1010.07 1010.39 1010.59 1010.71 1011.15 1011.43 1011.51 1011.75 1011.87 1011.91 1012.27 1012.47 1012.63 1012.67 1012.71 1012.91 1013.19 1013.47 1013.71 1013.75 1013.83 1014.03 1014.19 1014.39 1014.43 1014.47 1014.63 1014.75 1014.79 1014.79 1014.71 1014.67 1014.99 1015.19 1015.39 1015.59 1015.83 1015.99 1016.15 1016.27 1016.55 1016.83 1017.03 1017.11 1017.07 1017.11 1016.91 1016.99 1017.07 1017.11 1017.55 1018.79 1019.03 1018.55 1018.79 1018.95 1019.07 1019.27 1019.23 1019.27 1019.07 1019.35 1019.55
1009.75 1009.99 1010.31 1010.43 1010.79 1010.91 1011.15 1011.31 1011.55 1011.79 1011.99 1012.19 1012.31 1012.47 1012.59 1012.79 1013.19 1013.51 1013.63 1013.79 1013.75 1013.87 1014.15 1014.27 1014.27 1014.35 1014.51 1014.71 1014.71 1014.67 1014.83 1014.59 1014.83 1015.07 1015.19 1015.35 1015.55 1015.75 1015.99 1016.11 1016.39 1016.55 1016.75 1016.99 1016.99 1016.87 1016.79 1016.71 1016.87 1016.87 1016.99 1017.83 1018.51 1019.15 1018.63 1018.87 1018.71 1018.63 1018.31 1018.87 1018.91 1019.07 1019.39
1009.67 1009.99 1010.23 1010.43 1010.63 1010.71 1010.91 1010.99 1011.31 1011.59 1011.79 1011.99 1012.23 1012.27 1012.55 1012.55 1013.07 1013.39 1013.51 1013.51 1013.75 1014.07 1014.19 1014.19 1014.27 1014.39 1014.43 1014.51 1014.55 1014.55 1014.71 1014.51 1014.67 1014.87 1014.91 1015.19 1015.31 1015.47 1015.67 1015.95 1016.15 1016.27 1016.51 1016.67 1016.79 1016.67 1016.67 1016.75 1016.75 1016.75 1016.83 1017.43 1017.71 1018.27 1018.91 1019.19 1019.03 1018.71 1018.31 1018.27 1019.03 1019.03 1019.03
1009.43 1009.63 1009.91 1010.19 1010.27 1010.55 1010.71 1010.91 1011.15 1011.59 1011.83 1011.87 1012.07 1012.23 1012.31 1012.59 1013.07 1013.43 1013.43 1013.59 1013.87 1014.07 1014.07 1014.11 1014.15 1014.27 1014.31 1014.35 1014.39 1014.39 1014.35 1014.39 1014.63 1014.63 1014.75 1014.91 1015.07 1015.23 1015.47 1015.79 1015.99 1016.15 1016.15 1016.47 1016.63 1016.63 1016.71 1016.83 1016.99 1017.07 1017.15 1017.27 1017.35 1017.95 1017.99 1018.67 1018.47 1018.27 1018.23 1018.15 1018.31 1018.55 1018.99
1009.15 1009.39 1009.63 1009.83 1010.03 1010.35 1010.63 1010.87 1011.15 1011.39 1011.59 1011.83 1011.99 1012.27 1012.47 1012.63 1012.99 1013.27 1013.47 1013.63 1013.71 1013.75 1013.75 1013.91 1014.07 1014.19 1014.15 1014.19 1014.19 1014.27 1014.19 1014.31 1014.51 1014.59 1014.55 1014.71 1014.87 1015.07 1015.39 1015.71 1015.79 1015.95 1016.07 1016.35 1016.51 1016.79 1016.95 1017.15 1017.27 1017.31 1017.39 1017.31 1017.39 1017.55 1017.63 1017.79 1018.23 1017.75 1017.67 1018.47 1018.47 1017.83 1018.43
1008.79 1009.11 1009.43 1009.71 1009.99 1010.19 1010.43 1010.79 1011.15 1011.39 1011.63 1011.67 1011.91 1012.07 1012.35 1012.55 1012.83 1013.23 1013.31 1013.35 1013.47 1013.47 1013.47 1013.51 1013.63 1013.87 1013.95 1014.03 1014.11 1014.11 1014.07 1014.19 1014.43 1014.47 1014.51 1014.51 1014.67 1014.91 1015.15 1015.47 1015.67 1015.87 1016.03 1016.27 1016.63 1016.87 1017.11 1017.27 1017.39 1017.47 1017.39 1017.35 1017.23 1017.27 1017.39 1017.51 1017.79 1017.59 1017.83 1017.99 1018.27 1018.15 1018.47
1008.75 1008.87 1009.23 1009.47 1009.79 1009.99 1010.27 1010.67 1010.91 1011.11 1011.31 1011.67 1011.71 1012.11 1012.15 1012.35 1012.63 1012.87 1012.95 1013.07 1013.11 1013.19 1013.27 1013.39 1013.47 1013.59 1013.71 1013.83 1013.87 1013.87 1013.87 1013.99 1014.27 1014.35 1014.39 1014.55 1014.63 1014.83 1015.03 1015.31 1015.55 1015.71 1015.91 1016.31 1016.59 1016.91 1017.11 1017.31 1017.43 1017.51 1017.39 1017.19 1017.19 1017.15 1017.39 1017.55 1017.75 1017.47 1018.03 1017.83 1017.91 1018.43 1018.55
1008.59 1008.83 1009.15 1009.43 1009.71 1009.91 1010.27 1010.63 1010.79 1011.07 1011.51 1011.51 1011.63 1011.99 1012.03 1012.23 1012.63 1012.67 1012.71 1012.83 1012.87 1012.83 1012.91 1013.07 1013.19 1013.31 1013.43 1013.55 1013.63 1013.59 1013.75 1013.83 1014.03 1014.11 1014.31 1014.47 1014.63 1014.79 1015.03 1015.19 1015.31 1015.63 1015.83 1016.15 1016.55 1016.91 1017.15 1017.35 1017.47 1017.55 1017.43 1017.31 1017.27 1017.19 1017.19 1017.51 1017.59 1017.43 1018.35 1018.71 1018.35 1018.35 1018.99
1008.43 1008.83 1009.11 1009.31 1009.67 1009.87 1010.23 1010.47 1010.55 1010.91 1011.27 1011.43 1011.47 1011.71 1011.95 1012.19 1012.35 1012.47 1012.71 1012.71 1012.63 1012.71 1012.79 1012.91 1012.91 1013.03 1013.19 1013.27 1013.39 1013.43 1013.51 1013.71 1013.95 1014.07 1014.19 1014.31 1014.47 1014.63 1015.07 1015.23 1015.55 1015.79 1015.95 1016.27 1016.51 1016.71 1016.91 1017.23 1017.23 1017.23 1017.23 1017.27 1017.39 1017.31 1017.35 1017.47 1017.55 1017.67 1018.07 1018.75 1018.51 1018.91 1019.07
1008.59 1008.79 1009.03 1009.23 1009.55 1009.79 1010.11 1010.35 1010.39 1010.75 1010.91 1011.23 1011.47 1011.67 1011.83 1011.99 1012.07 1012.27 1012.51 1012.67 1012.59 1012.63 1012.71 1012.83 1012.91 1012.99 1013.03 1013.11 1013.19 1013.23 1013.39 1013.63 1013.75 1013.95 1014.03 1014.19 1014.47 1014.71 1015.11 1015.51 1015.95 1016.35 1016.67 1016.55 1016.59 1016.71 1016.91 1017.11 1017.23 1017.27 1017.47 1017.51 1017.55 1017.59 1017.51 1017.47 1017.55 1017.55 1017.75 1018.43 1018.75 1018.63 1018.79
1008.55 1008.71 1008.95 1009.11 1009.39 1009.67 1010.03 1010.19 1010.43 1010.51 1010.75 1011.03 1011.27 1011.63 1011.91 1011.91 1011.99 1012.11 1012.43 1012.63 1012.67 1012.67 1012.71 1012.71 1012.87 1013.03 1013.03 1013.03 1013.07 1013.15 1013.23 1013.39 1013.63 1013.79 1013.91 1014.11 1014.67 1014.95 1015.31 1015.67 1016.07 1016.39 1016.55 1016.63 1016.83 1016.95 1017.07 1017.23 1017.23 1017.31 1017.47 1017.47 1017.39 1017.39 1017.59 1017.67 1017.63 1017.63 1017.75 1018.15 1018.47 1018.43 1018.39
1008.23 1008.47 1008.75 1008.95 1009.15 1009.43 1009.75 1010.11 1010.23 1010.27 1010.55 1010.87 1011.15 1011.47 1011.79 1011.87 1011.91 1012.03 1012.23 1012.35 1012.31 1012.35 1012.51 1012.67 1012.75 1012.91 1012.99 1013.03 1013.11 1013.11 1013.27 1013.51 1013.75 1013.91 1013.99 1014.11 1014.51 1015.07 1015.43 1015.71 1015.95 1016.03 1016.35 1016.63 1016.87 1016.99 1017.11 1017.27 1017.23 1017.39 1017.55 1017.59 1017.51 1017.63 1017.83 1017.75 1017.67 1017.63 1017.67 1017.83 1018.07 1018.55 1018.71
1007.95 1008.35 1008.59 1008.75 1008.91 1009.23 1009.63 1009.75 1009.91 1010.23 1010.39 1010.75 1011.11 1011.43 1011.59 1011.75 1011.83 1011.87 1011.91 1011.99 1012.15 1012.23 1012.31 1012.39 1012.55 1012.75 1012.87 1012.91 1013.03 1013.31 1013.75 1013.91 1014.15 1014.35 1014.51 1014.79 1015.15 1015.31 1015.55 1015.67 1015.87 1015.99 1016.27 1016.43 1016.75 1016.95 1017.07 1017.23 1017.35 1017.51 1017.63 1017.79 1017.83 1017.87 1017.95 1017.91 1017.79 1017.79 1017.79 1017.87 1017.99 1018.19 1018.55
1007.71 1008.07 1008.31 1008.59 1008.71 1008.91 1009.15 1009.39 1009.71 1010.11 1010.23 1010.63 1011.03 1011.19 1011.43 1011.59 1011.87 1011.87 1011.87 1012.03 1012.15 1012.23 1012.35 1012.51 1012.59 1012.75 1012.95 1013.11 1013.31 1013.55 1014.07 1014.19 1014.35 1014.55 1014.91 1015.23 1015.47 1015.75 1015.71 1015.67 1015.99 1016.31 1016.43 1016.55 1016.71 1016.83 1016.99 1017.19 1017.27 1017.47 1017.59 1017.83 1017.79 1017.83 1017.83 1017.79 1017.83 1017.87 1017.95 1017.87 1017.95 1018.23 1018.39
1007.39 1007.79 1008.19 1008.43 1008.63 1008.75 1009.03 1009.23 1009.59 1010.03 1010.31 1010.55 1010.83 1011.03 1011.19 1011.39 1011.79 1011.95 1011.95 1012.03 1012.15 1012.31 1012.51 1012.75 1012.95 1013.07 1013.23 1013.35 1013.55 1013.83 1014.07 1014.35 1014.59 1014.95 1015.35 1015.63 1015.59 1015.79 1015.75 1015.75 1016.03 1016.47 1016.79 1016.87 1016.95 1016.99 1017.07 1017.11 1017.27 1017.59 1017.67 1017.83 1017.83 1017.91 1017.83 1017.75 1017.87 1017.87 1017.71 1017.83 1018.03 1018.07 1018.31
1007.31 1007.63 1007.99 1008.19 1008.39 1008.79 1009.03 1009.39 1009.71 1010.03 1010.19 1010.39 1010.71 1010.95 1011.19 1011.35 1011.63 1011.83 1012.03 1012.15 1012.23 1012.39 1012.59 1012.63 1013.03 1013.31 1013.31 1013.35 1013.79 1013.91 1014.27 1014.43 1014.47 1014.71 1015.19 1015.63 1015.87 1015.99 1015.99 1016.07 1016.35 1016.55 1016.71 1016.79 1016.95 1017.19 1017.31 1017.31 1017.43 1017.51 1017.43 1017.71 1017.91 1018.03 1018.11 1018.15 1017.95 1017.63 1017.55 1017.79 1017.95 1018.15 1018.43
1007.31 1007.63 1007.79 1008.07 1008.43 1008.71 1008.99 1009.47 1009.79 1009.95 1010.15 1010.47 1010.83 1011.07 1011.23 1011.51 1011.63 1011.71 1011.87 1012.07 1012.31 1012.43 1012.59 1012.75 1013.35 1013.59 1013.67 1013.75 1013.83 1014.03 1014.15 1014.23 1014.35 1014.63 1014.95 1015.27 1015.67 1015.99 1016.11 1016.39 1016.75 1017.11 1017.19 1017.15 1017.31 1017.59 1017.75 1017.71 1017.75 1017.79 1017.79 1017.99 1018.19 1018.27 1018.15 1018.11 1017.91 1017.59 1017.59 1017.75 1017.71 1017.99 1018.11
1007.19 1007.47 1007.71 1008.03 1008.39 1008.67 1009.03 1009.39 1009.67 1009.91 1010.19 1010.55 1010.83 1011.03 1011.31 1011.35 1011.39 1011.55 1011.67 1011.83 1012.11 1012.35 1012.55 1013.31 1013.63 1013.79 1013.83 1013.91 1013.91 1013.87 1013.95 1014.27 1014.43 1014.63 1014.91 1015.19 1015.47 1015.79 1016.07 1016.35 1016.63 1016.83 1016.79 1016.83 1017.27 1017.79 1018.07 1018.07 1018.03 1018.07 1018.23 1018.35 1018.47 1018.55 1018.71 1018.39 1017.91 1017.71 1017.75 1017.79 1017.63 1017.95 1017.99
1007.11 1007.51 1007.75 1007.99 1008.27 1008.67 1008.99 1009.27 1009.55 1009.91 1010.23 1010.35 1010.63 1011.03 1011.19 1011.23 1011.39 1011.43 1011.59 1011.79 1012.15 1012.43 1012.75 1013.71 1013.75 1013.87 1013.91 1013.99 1014.03 1013.79 1013.79 1014.07 1014.43 1014.63 1014.91 1015.15 1015.39 1015.75 1016.03 1016.31 1016.55 1016.63 1016.67 1017.03 1017.07 1017.31 1017.63 1017.99 1018.19 1018.31 1018.39 1018.55 1018.63 1018.63 1018.63 1018.67 1018.67 1018.47 1017.95 1017.71 1017.71 1017.75 1017.99
1007.19 1007.47 1007.67 1007.95 1008.27 1008.63 1009.03 1009.27 1009.51 1009.75 1010.07 1010.47 1010.71 1010.95 1011.15 1011.31 1011.39 1011.51 1011.55 1011.83 1012.31 1012.51 1012.91 1013.79 1013.79 1013.95 1014.07 1014.23 1014.11 1013.83 1013.55 1014.11 1014.43 1014.67 1014.91 1015.15 1015.39 1015.67 1015.83 1015.87 1016.07 1016.39 1016.59 1016.79 1016.87 1017.07 1017.27 1017.47 1017.83 1018.07 1018.11 1017.99 1018.15 1018.75 1018.87 1018.79 1018.63 1018.51 1018.51 1018.23 1017.87 1017.87 1018.03
1007.23 1007.51 1007.71 1007.95 1008.31 1008.71 1009.03 1009.31 1009.67 1009.95 1010.19 1010.55 1010.75 1010.95 1011.15 1011.35 1011.39 1011.43 1011.63 1012.03 1012.47 1012.71 1013.19 1013.75 1013.91 1014.07 1014.23 1014.27 1014.19 1013.91 1013.55 1013.87 1014.15 1014.51 1014.79 1014.99 1015.23 1015.51 1015.67 1015.79 1015.91 1016.15 1016.43 1016.55 1016.63 1016.83 1016.95 1017.15 1017.35 1017.51 1017.63 1017.67 1017.79 1017.99 1018.15 1018.27 1018.23 1018.19 1018.27 1018.23 1018.11 1018.47 1018.71
1007.11 1007.43 1007.71 1008.07 1008.47 1008.87 1009.03 1009.23 1009.67 1009.91 1010.15 1010.39 1010.59 1010.75 1010.99 1011.03 1011.27 1011.39 1011.67 1012.15 1012.47 1012.71 1013.63 1014.03 1014.11 1014.27 1014.31 1014.31 1014.23 1013.67 1013.63 1013.91 1014.23 1014.51 1014.83 1015.11 1015.23 1015.39 1015.47 1015.63 1015.79 1015.99 1016.23 1016.35 1016.87 1017.11 1016.99 1016.83 1017.03 1017.27 1017.47 1017.75 1018.15 1018.75 1019.27 1019.75 1019.55 1018.91 1018.59 1018.43 1018.47 1018.71 1019.07
1006.99 1007.35 1007.67 1008.15 1008.51 1008.79 1009.07 1009.43 1009.59 1009.83 1010.27 1010.47 1010.75 1010.99 1011.11 1011.03 1011.11 1011.35 1011.75 1012.11 1012.35 1012.71 1013.63 1014.39 1014.35 1014.35 1014.31 1014.31 1014.03 1013.19 1013.63 1013.75 1014.19 1014.55 1014.83 1015.07 1015.19 1015.39 1015.63 1015.79 1015.87 1016.07 1016.27 1016.51 1017.23 1017.39 1017.35 1017.11 1016.95 1017.23 1017.43 1017.67 1018.07 1018.51 1019.07 1019.63 1019.87 1019.63 1019.55 1019.63 1019.75 1019.95 1020.11
1006.91 1007.23 1007.55 1007.87 1008.19 1008.55 1008.87 1009.23 1009.63 1009.95 1010.23 1010.59 1010.75 1010.83 1010.79 1010.91 1011.11 1011.27 1011.63 1011.99 1012.27 1012.67 1013.19 1014.19 1014.59 1014.43 1014.31 1014.15 1013.59 1013.15 1013.47 1013.51 1014.15 1014.51 1014.79 1015.15 1015.27 1015.59 1015.99 1016.27 1016.23 1016.23 1016.47 1017.03 1017.67 1017.67 1017.55 1017.39 1017.03 1017.27 1017.47 1017.71 1018.07 1018.35 1018.87 1019.23 1019.47 1019.99 1020.15 1020.19 1020.31 1020.39 1020.43
1006.63 1007.03 1007.39 1007.59 1007.95 1008.47 1008.83 1009.19 1009.67 1009.87 1010.15 1010.47 1010.71 1010.67 1010.63 1010.91 1011.23 1011.35 1011.55 1011.87 1012.43 1012.55 1012.87 1013.99 1014.71 1014.47 1014.27 1014.03 1013.75 1013.11 1013.15 1013.39 1014.07 1014.39 1014.79 1015.23 1015.35 1015.59 1016.23 1016.63 1016.95 1016.59 1016.87 1017.63 1018.03 1018.03 1017.95 1017.71 1017.15 1017.39 1017.51 1017.71 1018.03 1018.27 1018.59 1018.83 1019.23 1019.55 1019.79 1019.99 1020.23 1020.39 1020.55
1006.51 1006.91 1007.27 1007.67 1008.07 1008.47 1008.79 1009.27 1009.63 1009.83 1010.19 1010.43 1010.79 1010.63 1010.51 1010.83 1011.31 1011.51 1011.63 1012.03 1012.59 1012.51 1012.83 1013.59 1014.55 1014.67 1014.35 1014.11 1013.79 1013.03 1012.91 1013.35 1013.99 1014.31 1014.55 1014.87 1015.27 1015.63 1016.07 1016.59 1017.31 1017.55 1017.75 1018.03 1018.15 1018.15 1018.07 1018.03 1017.39 1017.39 1017.47 1017.59 1017.87 1018.23 1018.43 1018.55 1018.75 1018.91 1019.15 1019.27 1019.47 1019.63 1019.79
1006.79 1006.99 1007.19 1007.75 1008.11 1008.59 1009.03 1009.39 1009.63 1009.87 1010.11 1010.31 1010.55 1010.59 1010.71 1010.91 1011.39 1011.83 1011.91 1012.03 1012.35 1012.47 1012.75 1013.23 1014.19 1014.71 1014.55 1014.31 1013.95 1013.75 1012.99 1013.27 1013.59 1014.07 1014.27 1014.79 1014.95 1015.47 1015.87 1016.27 1017.07 1018.07 1018.03 1018.23 1018.23 1018.23 1018.23 1018.07 1017.83 1017.63 1017.59 1017.63 1017.95 1018.23 1018.31 1018.55 1019.15 1019.07 1019.11 1019.35 1019.47 1019.47 1019.75
1006.71 1006.95 1007.19 1007.75 1008.47 1008.99 1009.11 1009.35 1009.63 1009.75 1009.87 1010.15 1010.43 1010.79 1011.11 1011.27 1011.43 1011.63 1011.71 1011.83 1012.19 1012.63 1013.03 1013.35 1013.79 1014.75 1014.79 1014.59 1014.35 1014.15 1013.47 1013.23 1013.43 1013.87 1014.27 1014.59 1014.75 1015.15 1015.55 1016.15 1017.03 1018.07 1018.23 1018.35 1018.35 1018.35 1018.39 1018.31 1018.23 1017.75 1018.31 1018.43 1018.63 1018.75 1018.63 1018.87 1019.07 1019.07 1019.15 1019.31 1019.39 1019.55 1019.75
1007.15 1007.23 1007.55 1007.83 1008.31 1008.75 1009.11 1009.39 1009.59 1009.71 1010.11 1010.39 1010.51 1010.95 1011.47 1011.59 1011.67 1011.75 1011.87 1012.03 1012.39 1012.79 1013.19 1013.59 1013.83 1014.35 1014.83 1014.83 1014.79 1014.43 1014.47 1014.27 1013.99 1014.03 1014.27 1014.59 1014.79 1015.07 1015.51 1016.15 1017.19 1018.15 1018.35 1018.47 1018.55 1018.59 1018.59 1018.59 1018.43 1018.67 1018.91 1018.87 1019.11 1019.23 1019.03 1018.91 1019.07 1019.03 1019.03 1019.11 1019.23 1019.39 1019.51
1007.31 1007.63 1007.91 1008.07 1008.27 1008.75 1009.11 1009.35 1009.59 1009.79 1010.07 1010.43 1010.71 1010.99 1011.27 1011.39 1011.63 1011.79 1011.99 1012.35 1012.75 1013.07 1013.31 1013.47 1014.15 1014.31 1014.59 1014.95 1014.91 1014.95 1015.03 1014.79 1014.47 1014.31 1014.39 1014.59 1014.87 1015.43 1015.87 1016.51 1017.47 1018.27 1018.47 1018.59 1018.67 1018.75 1018.75 1018.79 1018.83 1019.19 1019.23 1019.39 1019.47 1019.47 1018.99 1019.03 1019.03 1018.87 1018.99 1019.03 1019.19 1019.35 1019.43
Wind_Speed
11 10 10 9 8 8 9 10 9 9 10 10 10 10 10 9 8 7 7 7 6 6 6 6 6 7 7 6 7 8 8 7 8 8 8 7 7 6 7 6 5 6 6 5 4 5 6 5 6 3 1 3 4 4 3 4 5 5 4 3 4 4 4
11 10 9 9 9 8 9 9 9 9 9 10 10 10 10 9 8 7 8 7 7 6 6 6 7 8 9 8 7 8 8 8 8 8 7 7 7 6 6 6 5 6 6 6 6 5 6 7 5 6 5 3 3 3 4 2 3 3 4 4 3 3 4
10 9 9 9 9 10 10 10 10 9 9 10 9 10 9 9 9 8 8 9 8 7 7 7 8 9 9 9 8 8 8 9 7 7 6 5 6 5 6 5 6 6 6 5 5 6 6 8 8 6 7 8 8 6 5 6 6 6 5 4 4 4 4
12 12 10 10 9 10 10 10 10 9 9 9 9 9 8 9 9 9 9 9 8 7 8 8 8 7 8 8 8 8 9 8 6 6 5 6 6 6 7 6 7 8 7 7 6 6 6 6 7 6 6 9 9 7 6 7 6 6 5 5 4 4 3
13 11 11 13 12 12 11 11 9 9 9 9 9 8 9 9 9 9 9 8 8 8 8 6 5 6 6 7 7 8 7 8 7 6 6 7 9 7 8 7 7 6 6 5 5 5 6 7 7 7 6 6 8 7 7 6 6 7 7 6 6 4 4
13 12 12 12 11 10 10 10 9 9 9 9 9 9 9 11 9 9 8 8 7 7 7 7 7 7 6 7 8 9 9 9 8 7 7 9 9 8 8 8 7 6 6 6 5 5 5 6 6 7 5 7 8 7 7 8 8 8 7 7 7 5 5
12 11 11 10 10 9 9 9 10 9 9 9 9 8 8 10 9 7 7 8 8 7 8 8 7 6 7 7 7 8 9 8 8 9 9 10 9 10 8 7 8 7 6 6 6 5 5 6 7 7 6 7 8 7 7 7 8 8 8 8 7 5 5
11 11 10 9 10 10 9 10 10 9 8 8 8 8 8 8 8 6 7 7 7 7 6 7 7 8 7 6 6 7 8 7 9 8 9 10 9 10 10 8 7 6 5 6 5 6 6 6 7 7 8 8 8 8 7 7 8 11 7 7 7 6 6
10 10 9 8 9 9 9 10 9 8 7 7 7 7 8 8 7 7 7 8 8 9 8 9 9 8 8 7 7 7 8 6 8 10 9 9 9 10 10 8 7 7 6 6 6 6 7 6 7 6 8 9 8 7 7 7 7 8 10 7 8 8 7
12 11 10 10 10 9 9 8 7 6 6 6 6 6 8 8 6 7 7 9 9 8 8 9 9 8 8 8 8 8 9 9 8 10 9 8 8 8 8 10 7 6 6 6 7 6 6 6 6 7 7 8 7 6 6 7 7 6 9 9 6 8 8
11 11 10 11 10 9 9 8 6 6 6 6 6 6 8 8 7 7 8 9 7 8 9 8 8 8 8 8 8 8 8 9 9 8 9 9 8 7 7 7 7 6 6 6 5 4 4 4 5 6 7 7 7 7 5 6 6 6 5 8 6 6 7
12 11 10 10 9 9 9 7 6 6 6 6 6 7 7 7 7 8 8 8 8 9 9 8 9 9 9 9 9 8 8 8 8 9 8 8 7 8 8 8 8 7 6 5 4 3 2 2 3 5 6 7 7 8 7 5 5 6 5 6 7 7 6
12 12 11 10 9 9 9 8 7 7 7 7 7 9 8 9 8 9 8 8 8 8 8 8 8 9 8 8 8 8 8 9 9 9 8 8 7 8 9 9 8 6 6 5 4 3 3 2 2 4 6 7 7 7 6 6 7 3 6 6 6 5 5
13 11 11 11 10 9 8 7 7 7 8 8 8 8 10 9 9 8 8 7 8 8 8 7 6 7 8 8 8 9 8 9 10 9 9 10 8 8 9 9 8 7 6 6 5 4 3 3 3 5 5 6 7 6 7 7 6 4 5 3 6 6 7
13 11 11 11 10 9 8 8 8 8 8 9 8 10 9 6 6 7 8 8 8 8 7 7 7 7 8 8 9 7 8 9 10 10 9 10 9 7 7 9 9 8 7 6 6 5 4 4 4 5 6 6 6 5 5 6 6 5 6 5 4 5 6
12 13 12 11 11 10 9 8 8 8 9 8 8 9 8 8 7 7 7 7 8 7 7 7 7 7 8 8 8 8 7 8 9 10 10 11 10 9 8 8 7 7 5 6 6 5 5 4 4 5 3 3 4 4 4 6 5 6 6 6 6 7 7
13 12 12 10 11 10 8 8 8 8 7 7 8 8 8 8 7 7 7 7 7 7 7 7 7 7 8 8 8 8 8 8 8 9 10 9 9 8 7 6 5 5 3 5 5 5 4 4 3 2 2 2 3 3 4 5 6 5 4 6 7 7 6
14 13 12 11 11 10 9 9 8 8 8 8 8 8 8 7 7 7 7 8 8 8 8 8 8 8 7 7 8 8 7 7 7 8 8 8 7 7 8 7 7 7 6 5 5 4 4 5 4 3 3 3 3 3 3 4 6 6 5 6 6 7 6
13 13 13 12 11 10 10 10 9 8 8 8 9 9 9 8 7 7 7 8 8 8 8 7 7 6 6 7 8 8 6 4 4 4 2 4 7 6 6 6 7 7 7 6 6 6 6 6 4 3 2 2 2 2 3 4 5 6 7 6 6 6 6
12 12 12 11 10 10 10 11 10 8 8 8 8 8 9 8 7 7 7 6 6 6 6 6 6 7 7 7 7 3 3 3 4 4 5 6 7 7 6 4 5 6 7 6 6 6 6 6 4 4 3 2 2 3 4 4 5 6 6 6 6 7 7
13 12 11 10 10 10 11 11 9 9 8 9 8 8 8 8 6 6 5 5 5 4 5 5 5 6 6 6 4 3 5 7 6 7 7 6 5 5 5 6 5 3 3 4 5 5 5 4 4 4 3 3 3 3 4 4 5 5 6 6 6 6 6
12 12 11 11 11 10 10 9 10 10 9 8 7 6 6 6 7 6 6 5 6 5 4 4 4 5 6 6 4 5 6 7 7 7 7 5 5 5 5 5 5 3 4 6 7 3 2 1 4 4 3 3 3 4 3 3 5 5 6 6 6 5 5
11 11 11 11 10 10 9 8 8 9 9 8 7 7 6 7 7 7 7 6 5 4 4 4 4 5 6 4 5 5 7 8 8 8 8 7 5 4 4 4 4 7 7 6 4 3 3 4 7 4 1 4 4 3 3 4 5 5 5 5 5 5 5
11 12 12 10 9 10 10 9 9 10 9 8 8 8 7 8 7 7 7 6 6 4 4 3 9 6 6 9 6 7 8 9 10 8 8 8 7 6 5 5 4 4 3 5 5 6 5 6 6 6 8 9 7 1 5 6 4 3 3 4 4 5 5
12 11 10 11 11 10 9 10 10 10 9 9 9 9 9 8 8 7 6 7 6 5 4 8 10 10 10 11 8 7 8 8 9 7 7 7 6 6 6 6 5 4 4 4 5 5 5 7 7 7 7 6 6 7 6 4 2 4 4 5 5 4 3
12 11 12 12 11 11 11 10 10 10 10 9 9 10 9 8 7 7 7 7 6 5 4 8 11 11 12 11 8 8 9 8 7 7 7 7 7 6 6 6 5 4 3 7 6 5 5 5 6 7 7 6 7 7 7 8 6 5 5 5 5 4 3
11 12 12 10 10 10 10 10 9 9 9 8 9 10 9 9 7 7 6 6 6 5 5 8 11 12 11 10 9 7 8 8 7 7 7 7 7 7 7 7 6 5 4 5 4 5 6 6 6 6 6 6 4 4 4 6 4 4 4 5 3 4 2
11 11 10 11 10 10 10 10 10 9 9 10 10 10 10 9 8 7 7 7 6 6 5 10 10 11 11 11 10 8 8 9 9 9 8 8 7 7 6 5 5 6 6 6 4 4 6 6 6 6 6 5 4 4 3 3 4 4 4 4 3 2 4
11 10 10 10 10 10 10 10 11 9 9 9 8 8 7 7 8 8 8 7 6 7 5 10 10 11 12 11 10 7 9 9 9 9 8 8 8 7 7 6 5 5 5 5 6 3 4 5 7 7 7 6 5 6 6 5 6 9 7 3 2 3 5
11 11 12 11 11 11 11 11 10 9 10 10 10 9 9 7 7 8 9 8 7 7 7 8 10 11 12 12 10 8 10 9 9 9 9 8 7 6 5 4 5 5 6 5 6 2 1 4 8 7 7 7 7 6 7 6 8 11 13 14 14 13 11
12 12 12 13 12 11 9 9 10 9 10 10 9 10 9 7 7 9 9 9 7 8 8 9 11 12 13 15 11 9 9 9 9 9 9 8 6 5 5 8 2 5 5 7 7 2 3 6 6 7 8 8 8 8 8 7 7 7 10 11 11 11 10
11 10 11 10 10 11 10 9 9 9 9 9 9 9 8 8 8 7 8 8 8 9 10 10 11 12 14 15 10 9 9 9 10 10 9 8 6 5 7 5 11 7 8 9 6 2 2 8 5 6 8 8 7 8 8 9 9 9 9 8 8 7 6
10 10 11 11 11 9 9 10 10 9 8 8 8 8 8 8 9 7 7 9 7 8 10 9 10 12 13 13 14 7 9 9 10 10 9 9 7 7 7 6 8 12 12 9 6 2 1 9 2 6 6 6 7 8 9 9 8 8 8 7 7 7 7
10 10 10 9 8 8 9 9 9 7 10 9 9 7 7 8 9 8 7 8 8 7 8 10 10 12 12 12 12 10 7 8 9 9 9 9 8 8 8 7 7 8 10 8 6 4 3 7 8 4 4 5 5 8 8 8 6 3 6 6 6 6 6
9 8 9 9 9 8 8 9 10 10 9 9 10 9 8 8 8 8 7 7 7 6 6 8 9 10 11 11 11 10 6 9 7 9 8 8 8 8 8 8 8 8 10 9 7 6 5 5 8 1 8 11 12 6 6 7 6 6 6 5 4 4 4
7 7 9 10 10 10 9 10 9 9 10 10 10 10 10 9 8 7 6 6 5 5 7 5 9 10 11 10 9 11 7 9 6 5 7 8 7 8 7 9 9 12 10 9 8 7 7 4 4 7 8 10 8 4 3 5 5 4 4 5 5 6 5
10 9 9 9 9 9 10 10 9 8 8 9 10 10 9 9 9 8 8 7 5 5 5 5 6 9 10 11 9 6 4 6 3 2 5 7 6 8 9 9 10 13 10 10 8 7 6 2 6 7 7 7 5 2 3 5 5 5 5 6 6 6 5
Wind_Direction
196 192 191 191 193 190 186 186 188 188 195 192 195 200 197 199 199 204 212 214 210 206 209 213 221 225 225 222 225 228 226 227 212 224 223 211 210 198 200 207 219 252 247 192 210 255 276 253 171 170 191 212 210 187 189 178 177 175 168 148 147 141 131
195 195 188 186 184 182 185 185 186 181 187 196 192 195 199 197 198 204 209 210 209 209 208 214 216 218 220 222 215 217 214 213 217 223 230 219 214 217 179 198 199 225 226 213 194 211 246 261 221 188 194 173 203 177 184 203 182 182 194 177 159 124 120
191 189 186 177 183 182 183 180 185 177 185 191 191 194 199 197 204 207 208 209 207 209 212 212 213 213 214 218 219 217 211 212 213 218 220 219 216 218 207 189 191 206 219 199 192 201 232 251 273 226 196 201 198 190 189 196 188 192 181 163 163 162 142
187 188 185 178 183 178 182 179 181 185 183 185 189 191 197 202 202 208 210 209 208 208 213 211 214 213 209 214 216 214 213 212 210 208 210 227 224 210 206 210 202 201 210 196 180 195 222 235 238 238 194 210 217 180 195 190 188 187 196 185 172 180 179
187 184 186 178 178 174 181 175 180 183 184 187 188 187 193 201 206 210 211 212 211 212 216 218 222 219 215 211 213 208 203 204 207 201 210 215 212 211 211 213 218 218 230 223 201 210 215 227 234 240 197 211 219 208 181 188 202 204 205 201 202 199 213
187 185 185 178 175 175 180 179 181 184 184 186 189 192 192 201 207 208 206 212 215 218 222 218 217 219 216 212 209 211 209 202 201 201 210 215 209 212 209 209 216 218 234 245 251 226 224 235 236 239 208 181 216 208 175 188 203 216 216 213 227 206 199
192 188 185 181 178 179 182 184 184 186 182 183 182 195 198 202 205 205 208 217 222 220 215 219 221 217 220 225 223 222 220 214 205 199 211 214 214 214 210 205 202 212 227 238 243 243 237 227 227 226 198 199 214 211 170 197 210 208 216 217 220 213 201
191 193 192 189 184 184 186 185 190 189 183 176 183 190 197 200 196 182 206 226 224 218 213 218 219 217 217 226 235 241 238 225 219 209 212 213 214 209 207 206 197 202 217 237 240 235 236 233 236 225 212 200 203 217 197 204 203 211 205 203 207 203 205
192 191 189 188 184 188 185 187 187 183 180 177 183 189 200 201 179 184 207 222 224 220 215 220 222 224 219 223 230 230 236 232 227 219 217 210 212 211 209 203 202 208 206 220 235 234 240 238 233 236 222 207 206 203 204 204 210 202 200 198 191 198 202
191 190 188 188 185 191 192 192 184 175 168 171 174 188 193 201 175 190 203 221 221 224 227 227 223 224 225 229 234 229 231 228 225 229 230 227 212 207 203 199 204 198 199 207 227 238 234 237 237 235 224 220 221 229 195 211 209 216 189 198 185 183 211
190 189 188 187 188 191 193 189 172 163 170 171 167 189 198 197 173 193 218 222 222 226 228 228 226 227 231 232 232 232 232 231 227 229 224 222 210 192 193 194 199 203 196 192 205 219 226 225 229 232 227 229 233 240 226 220 211 204 204 189 191 189 190
190 190 189 189 189 193 193 182 167 162 160 171 173 175 188 190 183 195 209 216 220 225 225 223 223 228 228 229 227 226 227 230 226 227 220 212 201 194 192 192 193 198 174 176 167 162 154 178 215 229 232 233 232 235 252 235 249 178 219 198 204 234 168
191 191 191 190 192 197 193 181 164 166 172 175 180 193 206 206 194 194 205 213 218 221 219 219 216 221 223 226 229 230 227 226 231 231 220 209 195 196 194 192 186 186 168 160 151 152 157 169 207 230 232 230 229 229 238 243 244 199 161 204 200 218 182
190 191 189 188 195 197 189 176 176 178 167 182 180 194 206 205 201 200 210 219 219 216 223 224 223 224 221 222 224 225 225 222 225 226 219 211 199 196 196 193 184 185 163 157 155 158 174 182 197 228 234 233 234 220 226 235 235 213 167 232 204 186 192
189 193 188 191 196 196 184 176 183 170 175 182 176 187 200 206 200 200 208 214 221 224 223 225 223 224 222 218 220 219 221 219 224 224 219 215 200 189 195 197 184 165 163 161 151 162 175 185 201 214 219 232 233 226 222 235 233 239 195 197 202 161 177
190 190 191 191 195 195 181 178 187 179 176 170 175 179 193 202 203 199 204 218 228 228 224 225 227 221 227 226 223 221 221 220 220 222 217 217 202 182 187 189 166 155 152 161 162 175 179 192 212 220 213 226 236 235 224 230 243 227 196 204 199 185 175
190 189 190 191 195 191 180 177 186 178 171 163 170 172 189 206 212 203 201 213 228 230 226 223 224 228 229 229 227 226 219 224 223 219 222 218 207 186 175 162 122 102 158 171 163 161 166 181 193 211 194 223 227 230 240 221 229 243 201 201 201 214 185
191 185 189 193 195 185 182 178 187 178 164 166 161 166 188 211 209 201 198 205 219 228 231 227 222 219 225 233 237 237 229 226 223 221 221 207 188 176 165 144 134 163 180 165 158 158 166 170 183 182 196 220 232 219 218 224 219 224 226 208 200 215 196
189 188 192 195 195 185 183 182 183 173 167 166 163 166 184 200 206 204 206 208 218 221 220 225 226 228 234 232 229 234 238 220 232 222 218 161 156 148 127 150 161 164 171 172 169 169 167 179 181 158 184 228 236 244 241 223 223 214 217 212 202 195 201
186 186 192 195 191 187 186 185 177 168 163 160 164 171 181 191 204 213 211 212 214 222 223 226 227 229 232 234 238 192 92 159 171 125 112 112 100 108 130 138 149 164 173 173 169 169 168 172 173 177 189 203 238 231 222 211 209 209 207 212 199 204 202
185 186 188 187 192 187 184 181 168 156 166 157 168 179 188 178 184 211 199 206 210 220 222 226 235 241 245 252 264 164 174 184 187 169 125 110 117 133 148 140 129 136 146 166 169 173 165 182 166 198 169 205 215 219 215 199 199 197 203 208 199 194 198
186 184 174 187 189 186 180 176 164 160 166 162 164 171 174 175 173 192 187 188 196 193 214 221 227 226 219 217 197 186 174 170 150 124 109 117 123 135 130 120 114 101 62 58 51 71 92 116 174 186 178 199 205 211 219 202 192 195 198 197 200 202 191
183 181 181 187 183 178 169 155 160 162 167 160 161 169 170 168 172 180 176 177 182 192 202 212 88 23 338 157 173 167 154 163 156 150 136 126 118 128 126 112 117 134 135 140 126 105 88 70 50 24 203 175 195 209 217 222 208 203 201 196 200 194 202
179 179 181 175 170 172 165 163 167 166 158 157 163 163 164 169 169 174 176 173 177 175 194 107 102 139 123 132 162 168 175 171 164 147 141 144 149 145 137 139 126 129 137 115 94 88 95 84 73 49 37 39 29 349 222 212 220 215 206 212 207 203 216
178 174 175 173 173 173 168 169 167 162 157 158 162 161 164 170 169 174 176 173 168 174 151 98 128 134 139 150 170 171 160 156 161 148 150 154 149 146 151 156 152 165 179 152 135 125 94 78 90 84 74 64 46 43 49 18 266 208 213 233 217 215 229
174 169 173 171 169 172 171 171 162 159 160 163 161 164 166 171 173 172 176 168 160 166 148 127 139 144 151 156 160 176 154 156 156 147 152 154 155 160 161 163 161 170 133 133 152 152 142 117 96 105 120 117 84 51 32 35 37 21 322 238 243 229 225
167 170 169 168 164 165 168 168 161 160 157 156 167 164 165 167 171 173 168 146 157 162 131 145 142 146 148 146 164 212 147 157 150 152 159 162 171 174 178 176 169 166 157 166 164 158 157 149 145 149 161 179 155 115 107 97 28 22 351 315 259 255 54
171 168 171 168 162 164 169 161 157 159 163 169 168 166 165 169 169 167 153 153 150 157 125 145 146 150 152 158 171 229 153 159 156 158 163 163 169 175 175 177 178 172 167 178 165 175 172 170 169 171 181 186 173 179 161 173 170 189 191 219 240 74 87
168 174 166 161 163 163 168 160 160 162 168 169 164 162 171 172 168 164 156 151 158 150 126 153 152 159 158 164 189 194 154 156 156 159 163 166 169 170 175 181 179 165 166 163 101 42 316 181 167 169 171 159 143 92 73 26 2 38 43 57 63 99 85
166 172 169 169 171 169 164 160 165 162 163 163 160 160 177 174 169 162 155 159 163 152 137 171 166 164 165 172 203 166 157 161 158 161 164 165 169 160 165 175 164 157 152 140 116 133 337 284 162 166 161 162 157 132 108 96 63 67 76 76 77 78 82
173 173 173 177 176 168 165 165 164 165 159 156 160 169 178 168 165 164 162 162 163 160 155 161 178 173 173 184 217 163 169 165 164 166 161 165 159 154 83 38 25 146 129 123 130 171 199 259 165 160 154 153 147 134 124 118 108 86 82 82 81 85 92
166 170 172 175 170 169 172 167 161 164 159 157 158 175 180 156 159 160 166 155 148 168 167 166 184 185 183 189 220 170 180 168 175 170 164 159 157 144 130 85 28 57 92 108 126 178 257 294 160 161 155 156 149 143 138 136 127 127 128 126 124 123 119
164 171 172 168 171 167 166 163 160 160 155 154 163 180 181 157 162 159 156 145 159 176 169 173 185 195 191 195 229 217 170 175 177 166 166 158 158 150 142 126 88 89 107 117 132 132 277 327 205 155 168 165 149 141 145 150 140 143 140 137 137 138 131
162 171 164 163 169 156 162 155 151 157 159 163 174 172 173 155 156 155 169 161 167 171 172 174 174 192 197 205 227 263 184 183 174 169 165 161 163 155 154 141 123 117 127 137 131 114 57 12 2 164 180 160 138 124 142 132 83 63 128 125 134 135 135
161 167 163 158 156 156 151 152 155 159 159 168 165 158 156 163 165 164 169 171 159 163 163 171 166 186 209 209 229 258 255 181 183 173 163 170 167 160 155 140 140 148 144 137 131 119 85 48 340 166 67 82 88 107 137 123 136 144 140 151 142 142 143
155 163 166 168 167 157 157 159 156 147 150 160 163 157 159 159 165 165 164 162 148 149 156 172 160 176 200 217 221 246 294 326 95 189 171 175 171 157 147 137 130 145 146 137 128 117 100 83 82 85 100 96 94 68 137 143 146 156 148 149 153 141 149
159 159 165 170 169 161 159 161 152 138 147 156 158 159 160 160 168 173 174 160 153 140 149 163 168 186 185 204 208 247 346 347 125 210 181 182 156 131 135 132 138 147 143 139 135 137 132 77 97 115 98 103 114 238 200 140 170 148 143 145 140 140 135